STARLINK-32018 (60105 NORAD) Tracking and Keplerian Element Data

This shows tracking and keplerian element data for the satellite.

Feedback or suggestion? Click here.




ElementValue
Catalog60105
NameSTARLINK-32018
Epoch Orbit1833
Epoch Day286.62886092
Epoch Year2024
RAAN260.3056
Inclination53.1618
Eccentricity0.0001317
Argument of Perigee99.8959
Mean Anonmoly260.219
Mean Motion15.30192909
Decay Rate-1.257E-05
L11 60105U 24117Q 24286.62886092 -.00001257 00000+0 -30327-4 0 9995
L22 60105 53.1618 260.3056 0001317 99.8959 260.2190 15.30192909 18335



Live tracking and technical data element details for STARLINK-32018 (NORAD 60105). STARLINK-32018 can be tracked NOW for your location showing map with azimuth and elevation plus other details from your city location.







IsCatalogInMostPopularTable: catalog: 60105, numindb: 8
Update: records affected: 1



GetName: 60105 STARLINK-32018

Hit Count: updated at: Thu, 23 Jan 2025 14:06:25 GMT